Regional Weather Roundup
Issued by NWS

Home | Current Version | Previous Version | Text Only | Print | Product List | Glossary Off
Versions: 1 2 3 4 5 6 7 8 9 10 11 12 13 14 15 16 17 18 19 20 21 22 23 24 25 26 27 28 29 30 31 32 33 34 35 36 37 38 39 40 41 42 43 44 45 46 47 48 49 50

000
ASUS43 KOAX 190610
RWRNE

WEATHER ROUNDUP FOR NEBRASKA
NATIONAL WEATHER SERVICE OMAHA NE
1200 AM CST MON FEB 19 2018

NOTES: SATELLITE DATA IS BEING USED TO AUGMENT CLOUD COVER ABOVE
       12000 FEET.
       "FAIR" INDICATES FEW OR NO CLOUDS BELOW 12,000 FEET WITH NO
       SIGNIFICANT WEATHER AND/OR OBSTRUCTIONS TO VISIBILITY.


NEZ001>004-019>022-054>056-190700-
NEBRASKA PANHANDLE

CITY           SKY/WX    TMP DP  RH WIND       PRES   REMARKS
SCOTTSBLUFF    CLOUDY    12   4  70 N10       29.81R WCI  -1
6HR MIN TEMP:  11; 6HR MAX TEMP:  24;

ALLIANCE       LGT SNOW   9   5  84 N21       29.78R FOG     WCI -11
6HR MIN TEMP:   8; 6HR MAX TEMP:  20; 6HR PCP: TRACE;

CHADRON        LGT SNOW   8   2  76 N16       29.91R WCI -10
6HR MIN TEMP:   8; 6HR MAX TEMP:  15; 6HR PCP: TRACE;

GORDON         CLOUDY     8   3  78 N17G29    29.83R WCI -10
6HR MIN TEMP:   8; 6HR MAX TEMP:  16;

KIMBALL        FLURRIES  13   8  82 N16G26    29.70R WCI  -3
SIDNEY         LGT SNOW  12   8  84 N18       29.73R FOG     WCI  -6
6HR MIN TEMP:  12; 6HR MAX TEMP:  34; 6HR PCP: TRACE;

$$

NEZ057>060-069>072-079>082-190700-
SOUTHWEST NEBRASKA

CITY           SKY/WX    TMP DP  RH WIND       PRES   REMARKS
NORTH PLATTE   CLOUDY    19  14  81 N23G35    29.71R WCI   2
6HR MIN TEMP:  19; 6HR MAX TEMP:  38; 6HR PCP: TRACE;

IMPERIAL       CLOUDY    20  17  88 N24G31    29.70R WCI   3
6HR MIN TEMP:  20; 6HR MAX TEMP:  48;

LEXINGTON      CLOUDY    25  22  88 N22G30    29.67R WCI  10
MCCOOK         CLOUDY    25  22  88 N24G31    29.65R WCI   9
6HR MIN TEMP:  25; 6HR MAX TEMP:  55;

OGALLALA       FLURRIES  19  13  78 N24G30    29.74R WCI   1
$$

NEZ005>010-023>029-035>040-094-190700-
NORTH CENTRAL NEBRASKA

CITY           SKY/WX    TMP DP  RH WIND       PRES   REMARKS
VALENTINE      LGT SNOW  14   8  77 N18G26    29.86R WCI  -3
6HR MIN TEMP:  13; 6HR MAX TEMP:  22; 6HR PCP: TRACE;

AINSWORTH      LGT SNOW  15  12  88 N22G31    29.81R WCI  -3
BROKEN BOW     CLOUDY    21  18  88 N29G39    29.69R WCI   3
6HR MIN TEMP:  21; 6HR MAX TEMP:  38;

O`NEILL        CLOUDY    18  15  88 N22G32    29.77R WCI   1
ORD            CLOUDY    21  18  88 N26G37    29.71R WCI   4
6HR MIN TEMP:  22; 6HR MAX TEMP:  36;

THEDFORD       CLOUDY    16  12  83 N21G30    29.76R WCI  -1
$$

NEZ041-046>049-061>064-073>077-083>087-190700-
SOUTH CENTRAL NEBRASKA

CITY           SKY/WX    TMP DP  RH WIND       PRES   REMARKS
GRAND ISLAND   CLOUDY    27  23  85 N29G36    29.65S WCI  11
6HR MIN TEMP:  27; 6HR MAX TEMP:  47;

AURORA         CLOUDY    28  24  84 N26G33    29.64S WCI  13
HASTINGS       CLOUDY    28  24  85 N23G30    29.61F WCI  14
6HR MIN TEMP:  28; 6HR MAX TEMP:  58;

HEBRON         CLOUDY    38  32  78 N12G17    29.58S WCI  31
HOLDREGE       CLOUDY    26  25  94 N30G38    29.62R WCI  10
KEARNEY        CLOUDY    26  23  88 N30G37    29.63  WCI  10
YORK           CLOUDY    30  30 100 N23G31    29.64S WCI  17
$$

NEZ011>018-030>034-042>045-190700-
NORTHEAST NEBRASKA

CITY           SKY/WX    TMP DP  RH WIND       PRES   REMARKS
NORFOLK        CLOUDY    25  22  88 N14G25    29.69F WCI  13
6HR MIN TEMP:  25; 6HR MAX TEMP:  37;

ALBION         CLOUDY    25  22  88 N16G25    29.69R WCI  12
BLAIR          CLOUDY    35  31  87 N15       29.64S WCI  25
COLUMBUS       CLOUDY    28  25  88 N18       29.68F WCI  15
FREMONT        CLOUDY    32  28  84 N10G17    29.68S WCI  24
TEKAMAH        CLOUDY    33  29  85 N9        29.68S WCI  25
6HR MIN TEMP:  33; 6HR MAX TEMP:  44;

WAYNE          CLOUDY    28  27  96 N22G29    29.71S WCI  14
$$

NEZ050>053-065>068-078-088>093-190700-
SOUTHEAST NEBRASKA

CITY           SKY/WX    TMP DP  RH WIND       PRES   REMARKS
LINCOLN        FLURRIES  34  28  79 N16       29.65R WCI  24
6HR MIN TEMP:  34; 6HR MAX TEMP:  51; 6HR PCP: TRACE;

OMAHA EPPLEY   CLOUDY    35  30  82 N15       29.66R WCI  25
6HR MIN TEMP:  35; 6HR MAX TEMP:  50;

BEATRICE       CLOUDY    46  43  87 NE7       29.59F
FALLS CITY     CLOUDY    53  46  77 S14G24    29.60F
6HR MIN TEMP:  52; 6HR MAX TEMP:  53;

NEBRASKA CITY  CLOUDY    47  41  81 N5        29.63S
PLATTSMOUTH    CLOUDY    47  42  80 SE3       29.63S
$$

NEZ044-045-051>053-067-190700-
OMAHA AREA

CITY           SKY/WX    TMP DP  RH WIND       PRES   REMARKS
OMAHA EPPLEY   CLOUDY    35  30  82 N15       29.66R WCI  25
6HR MIN TEMP:  35; 6HR MAX TEMP:  50;

BLAIR          CLOUDY    35  31  87 N15       29.64S WCI  25
FREMONT        CLOUDY    32  28  84 N10G17    29.68S WCI  24
MILLARD        CLOUDY    38  32  78 N9        29.66R WCI  32
OFFUTT AFB     CLOUDY    42  35  76 N10       29.63S
PLATTSMOUTH    CLOUDY    47  42  80 SE3       29.63S
WAHOO          CLOUDY    33  29  86 N21G26    29.65S WCI  20
$$




USA.gov is the U.S. government's official web portal to all federal, state and local government web resources and services.